EW2839 Weather Reports


time (UTC)temp
C
wind
direction
speed
KPH
gust
KPH
rain 1hr
cm
rain 24hr
cm
rain mn
cm
humidity
%
barometer
mb
20260503180904 21 216 1.6 9.7 0.00 0.00 0.00 55 1011.0
20260503180403 21 97 0.0 8.0 0.00 0.00 0.00 56 1011.0
20260503174904 20 84 0.0 3.2 0.00 0.00 0.00 57 1012.0
20260503174403 20 85 0.0 8.0 0.00 0.00 0.00 57 1012.0
20260503173903 20 325 1.6 4.8 0.00 0.00 0.00 53 1012.0
20260503173403 19 17 1.6 8.0 0.00 0.00 0.00 62 1012.0
20260503171903 19 63 3.2 9.7 0.00 0.00 0.00 65 1012.0
20260503170903 18 316 1.6 8.0 0.00 0.00 0.00 68 1012.0
20260503170403 18 82 6.4 11.3 0.00 0.00 0.00 69 1012.0
20260503150904 13 68 0.0 0.0 0.00 0.00 0.00 81 1012.0
20260503150404 13 68 0.0 0.0 0.00 0.00 0.00 82 1012.0
20260503131404 12 90 0.0 0.0 0.00 0.00 0.00 81 1012.0
20260503110403 13 112 1.6 4.8 0.00 0.00 0.00 80 1012.0
20260503090404 13 68 0.0 3.2 0.00 0.00 0.00 78 1013.0
20260503081403 13 90 0.0 0.0 0.00 0.00 0.00 77 1013.0
20260503080903 13 90 0.0 0.0 0.00 0.00 0.00 76 1013.0
20260503080404 14 90 0.0 3.2 0.00 0.00 0.00 77 1013.0
20260503071404 15 45 0.0 0.0 0.00 0.00 0.00 75 1013.0
20260503070404 15 204 0.0 3.2 0.00 0.00 0.00 76 1013.0
20260503054904 16 90 0.0 0.0 0.00 0.00 0.00 73 1013.0
20260503054404 16 72 0.0 0.0 0.00 0.00 0.00 73 1013.0
20260503053904 16 68 0.0 0.0 0.00 0.00 0.00 73 1013.0
20260503053404 16 90 3.2 9.7 0.00 0.00 0.00 73 1013.0
20260503051904 16 79 3.2 9.7 0.00 0.00 0.00 73 1013.0
20260503051404 16 68 4.8 9.7 0.00 0.00 0.00 73 1013.0
20260503050904 16 90 0.0 4.8 0.00 0.00 0.00 72 1013.0
20260503050404 16 68 0.0 0.0 0.00 0.00 0.00 72 1013.0
20260503044904 16 90 0.0 0.0 0.00 0.00 0.00 72 1013.0
20260503043904 16 68 0.0 0.0 0.00 0.00 0.00 72 1013.0
20260503043403 16 72 0.0 0.0 0.00 0.00 0.00 72 1013.0
20260503041403 16 90 0.0 0.0 0.00 0.00 0.00 71 1013.0
20260503040903 16 68 1.6 3.2 0.00 0.00 0.00 71 1013.0
20260503040403 16 90 0.0 8.0 0.00 0.00 0.00 71 1013.0
20260503034904 16 68 0.0 0.0 0.00 0.00 0.00 70 1012.0
20260503034404 16 68 0.0 0.0 0.00 0.00 0.00 70 1013.0
20260503033404 16 90 0.0 3.2 0.00 0.00 0.00 69 1013.0
20260503031903 17 90 0.0 8.0 0.00 0.00 0.00 68 1013.0
20260503031404 17 68 1.6 3.2 0.00 0.00 0.00 68 1013.0
20260503030904 17 79 3.2 4.8 0.00 0.00 0.00 68 1013.0
20260503030404 17 132 6.4 9.7 0.00 0.00 0.00 68 1013.0
20260503024404 17 22 0.0 0.0 0.00 0.00 0.00 67 1013.0
20260503023904 17 296 0.0 3.2 0.00 0.00 0.00 67 1013.0
20260503023404 17 215 1.6 8.0 0.00 0.00 0.00 67 1013.0
20260503021904 17 237 8.0 12.9 0.00 0.00 0.00 66 1013.0
20260503020904 18 184 6.4 12.9 0.00 0.00 0.00 65 1013.0
20260503020404 18 245 8.0 16.1 0.00 0.00 0.00 63 1013.0
20260503014904 19 181 3.2 4.8 0.00 0.00 0.00 61 1012.0
20260503014404 19 209 3.2 4.8 0.00 0.00 0.00 60 1012.0
20260503013903 19 188 1.6 4.8 0.00 0.00 0.00 60 1012.0
20260503013403 19 200 0.0 3.2 0.00 0.00 0.00 60 1012.0
20260503011903 20 202 0.0 3.2 0.00 0.00 0.00 59 1012.0
20260503010904 20 198 0.0 0.0 0.00 0.00 0.00 59 1012.0
20260503010404 20 225 0.0 1.6 0.00 0.00 0.00 58 1012.0
20260503004904 20 225 0.0 0.0 0.00 0.00 0.00 58 1012.0
20260503004405 20 212 0.0 3.2 0.00 0.00 0.00 58 1012.0
20260503003404 20 180 1.6 4.8 0.00 0.00 0.00 58 1012.0
20260503001903 20 172 0.0 3.2 0.00 0.00 0.00 57 1012.0
20260503001404 20 258 0.0 0.0 0.00 0.00 0.00 58 1012.0
20260503000904 20 338 0.0 0.0 0.00 0.00 0.00 56 1012.0
20260503000404 20 281 0.0 4.8 0.00 0.00 0.00 55 1012.0
20260502233903 20 338 0.0 4.8 0.00 0.00 0.00 56 1012.0
20260502233403 20 288 1.6 8.0 0.00 0.00 0.00 55 1012.0
20260502231405 20 323 8.0 12.9 0.00 0.00 0.00 52 1013.0
20260502230903 20 15 0.0 4.8 0.00 0.00 0.00 57 1013.0
20260502230403 20 357 1.6 11.3 0.00 0.00 0.00 56 1013.0
20260502224903 20 339 1.6 11.3 0.00 0.00 0.00 57 1013.0
20260502224403 20 309 1.6 11.3 0.00 0.00 0.00 57 1013.0
20260502223904 20 0 3.2 4.8 0.00 0.00 0.00 58 1013.0
20260502223404 20 37 1.6 8.0 0.00 0.00 0.00 57 1013.0
20260502221904 20 300 1.6 8.0 0.00 0.00 0.00 56 1013.0
20260502221404 19 248 3.2 9.7 0.00 0.00 0.00 58 1013.0
20260502220905 19 100 1.6 4.8 0.00 0.00 0.00 58 1013.0
20260502214904 19 199 3.2 4.8 0.00 0.00 0.00 62 1013.0
20260502213904 19 197 1.6 4.8 0.00 0.00 0.00 61 1014.0
20260502213404 18 237 1.6 8.0 0.00 0.00 0.00 62 1014.0
20260502211904 18 225 3.2 9.7 0.00 0.00 0.00 62 1014.0
20260502211404 18 259 1.6 9.7 0.00 0.00 0.00 66 1015.0
20260502210903 18 235 1.6 3.2 0.00 0.00 0.00 62 1015.0
20260502210404 18 139 0.0 3.2 0.00 0.00 0.00 63 1015.0
20260502204903 18 205 3.2 9.7 0.00 0.00 0.00 64 1015.0
20260502204404 17 163 1.6 8.0 0.00 0.00 0.00 65 1016.0
20260502203903 17 356 1.6 4.8 0.00 0.00 0.00 65 1016.0
20260502203403 17 198 1.6 9.7 0.00 0.00 0.00 64 1016.0
20260502201904 17 187 3.2 4.8 0.00 0.00 0.00 65 1015.0
20260502201404 17 236 1.6 4.8 0.00 0.00 0.00 65 1014.0
20260502200903 16 195 0.0 3.2 0.00 0.00 0.00 66 1014.0
20260502194903 16 321 0.0 1.6 0.00 0.00 0.00 66 1015.0
20260502193904 16 72 1.6 8.0 0.00 0.00 0.00 67 1015.0
20260502193404 16 174 4.8 8.0 0.00 0.00 0.00 66 1015.0
20260502191903 15 348 1.6 9.7 0.00 0.00 0.00 68 1015.0
20260502191404 15 339 0.0 3.2 0.00 0.00 0.00 68 1015.0
20260502190903 15 308 1.6 4.8 0.00 0.00 0.00 68 1015.0
20260502190403 15 346 1.6 9.7 0.00 0.00 0.00 69 1015.0
20260502184903 14 228 3.2 4.8 0.00 0.00 0.00 71 1016.0
20260502184403 14 329 1.6 3.2 0.00 0.00 0.00 70 1015.0
20260502183903 15 250 0.0 3.2 0.00 0.00 0.00 70 1015.0
20260502183403 14 218 1.6 9.7 0.00 0.00 0.00 70 1015.0
20260502181903 13 302 4.8 9.7 0.00 0.00 0.00 70 1016.0
20260502181405 14 288 0.0 3.2 0.00 0.00 0.00 70 1016.0